TimeEDT,TemperatureF,Dew PointF,Humidity,Sea Level PressureIn,VisibilityMPH,Wind Direction,Wind SpeedMPH,Gust SpeedMPH,PrecipitationIn,Events,Conditions,WindDirDegrees,DateUTC
12:01 AM,73.4,69.8,88,29.91,10.0,Calm,Calm,-,N/A,,Clear,0,2013-06-17 04:01:00
12:21 AM,73.4,68.0,83,29.91,10.0,Calm,Calm,-,N/A,,Clear,0,2013-06-17 04:21:00
12:41 AM,73.4,68.0,83,29.91,10.0,Calm,Calm,-,N/A,,Clear,0,2013-06-17 04:41:00
1:01 AM,71.6,68.0,88,29.92,10.0,West,3.5,-,N/A,,Clear,270,2013-06-17 05:01:00
1:21 AM,73.4,68.0,83,29.92,10.0,Calm,Calm,-,N/A,,Clear,0,2013-06-17 05:21:00
1:41 AM,73.4,66.2,78,29.92,10.0,West,3.5,-,N/A,,Clear,270,2013-06-17 05:41:00
2:01 AM,73.4,64.4,73,29.92,10.0,West,3.5,-,N/A,,Clear,270,2013-06-17 06:01:00
2:21 AM,73.4,64.4,73,29.92,10.0,Calm,Calm,-,N/A,,Clear,0,2013-06-17 06:21:00
2:41 AM,73.4,64.4,73,29.92,10.0,Calm,Calm,-,N/A,,Clear,0,2013-06-17 06:41:00
3:01 AM,71.6,64.4,78,29.92,10.0,Calm,Calm,-,N/A,,Scattered Clouds,0,2013-06-17 07:01:00
3:21 AM,71.6,64.4,78,29.92,10.0,Calm,Calm,-,N/A,,Scattered Clouds,0,2013-06-17 07:21:00
3:41 AM,71.6,66.2,83,29.92,10.0,Calm,Calm,-,N/A,,Scattered Clouds,0,2013-06-17 07:41:00
4:01 AM,71.6,64.4,78,29.92,10.0,Calm,Calm,-,N/A,,Clear,0,2013-06-17 08:01:00
4:21 AM,71.6,66.2,83,29.93,10.0,Calm,Calm,-,N/A,,Scattered Clouds,0,2013-06-17 08:21:00
4:41 AM,71.6,64.4,78,29.93,10.0,Calm,Calm,-,N/A,,Clear,0,2013-06-17 08:41:00
5:01 AM,71.6,64.4,78,29.93,10.0,Calm,Calm,-,N/A,,Clear,0,2013-06-17 09:01:00
5:21 AM,71.6,66.2,83,29.93,10.0,Calm,Calm,-,N/A,,Clear,0,2013-06-17 09:21:00
5:41 AM,69.8,66.2,88,29.94,10.0,Calm,Calm,-,N/A,,Clear,0,2013-06-17 09:41:00
6:02 AM,69.8,66.2,88,29.94,10.0,Calm,Calm,-,N/A,,Clear,0,2013-06-17 10:02:00
6:22 AM,71.6,68.0,88,29.94,10.0,Calm,Calm,-,N/A,,Clear,0,2013-06-17 10:22:00
6:42 AM,71.6,68.0,88,29.95,10.0,Calm,Calm,-,N/A,,Clear,0,2013-06-17 10:42:00
7:02 AM,71.6,69.8,94,29.95,10.0,Calm,Calm,-,N/A,,Clear,0,2013-06-17 11:02:00
7:22 AM,71.6,69.8,94,29.95,10.0,Calm,Calm,-,N/A,,Clear,0,2013-06-17 11:22:00
7:42 AM,73.4,68.0,83,29.96,10.0,Calm,Calm,-,N/A,,Clear,0,2013-06-17 11:42:00
8:02 AM,73.4,68.0,83,29.96,10.0,Calm,Calm,-,N/A,,Clear,0,2013-06-17 12:02:00
8:22 AM,73.4,68.0,83,29.96,10.0,SW,3.5,-,N/A,,Clear,230,2013-06-17 12:22:00
8:42 AM,75.2,68.0,78,29.96,10.0,Calm,Calm,-,N/A,,Clear,0,2013-06-17 12:42:00
9:02 AM,77.0,66.2,69,29.96,10.0,SW,3.5,-,N/A,,Clear,230,2013-06-17 13:02:00
9:22 AM,77.0,68.0,74,29.95,10.0,SSW,5.8,-,N/A,,Clear,200,2013-06-17 13:22:00
9:42 AM,77.0,68.0,74,29.96,10.0,SW,5.8,-,N/A,,Clear,230,2013-06-17 13:42:00
10:02 AM,77.0,68.0,74,29.96,10.0,WSW,4.6,-,N/A,,Clear,240,2013-06-17 14:02:00
10:22 AM,77.0,68.0,74,29.95,10.0,WSW,4.6,-,N/A,,Clear,240,2013-06-17 14:22:00
10:42 AM,78.8,68.0,69,29.95,10.0,WSW,3.5,-,N/A,,Clear,240,2013-06-17 14:42:00
11:02 AM,78.8,68.0,69,29.94,10.0,WSW,4.6,-,N/A,,Clear,240,2013-06-17 15:02:00
11:22 AM,80.6,66.2,61,29.94,10.0,WSW,5.8,-,N/A,,Clear,250,2013-06-17 15:22:00
11:42 AM,80.6,64.4,58,29.93,10.0,SW,5.8,-,N/A,,Clear,230,2013-06-17 15:42:00
12:02 PM,80.6,64.4,58,29.94,10.0,WSW,4.6,-,N/A,,Clear,250,2013-06-17 16:02:00
12:22 PM,82.4,64.4,54,29.94,10.0,WSW,5.8,-,N/A,,Clear,240,2013-06-17 16:22:00
12:42 PM,80.6,64.4,58,29.94,10.0,WSW,4.6,-,N/A,,Clear,250,2013-06-17 16:42:00
1:02 PM,80.6,64.4,58,29.94,10.0,WSW,3.5,-,N/A,,Clear,240,2013-06-17 17:02:00
1:22 PM,82.4,64.4,54,29.93,10.0,Calm,Calm,-,N/A,,Clear,0,2013-06-17 17:22:00
1:42 PM,82.4,64.4,54,29.93,10.0,South,5.8,-,N/A,,Clear,190,2013-06-17 17:42:00
2:02 PM,80.6,68.0,65,29.93,10.0,SSW,9.2,-,N/A,,Clear,210,2013-06-17 18:02:00
2:22 PM,80.6,66.2,61,29.93,10.0,SSW,9.2,-,N/A,,Clear,200,2013-06-17 18:22:00
2:43 PM,82.4,64.4,54,29.92,10.0,SSW,8.1,-,N/A,,Clear,200,2013-06-17 18:43:00
3:03 PM,82.4,68.0,62,29.92,10.0,SSE,11.5,-,N/A,,Clear,150,2013-06-17 19:03:00
3:23 PM,80.6,69.8,70,29.91,10.0,SSE,11.5,-,N/A,,Clear,160,2013-06-17 19:23:00
3:43 PM,82.4,68.0,62,29.90,10.0,South,8.1,-,N/A,,Clear,180,2013-06-17 19:43:00
4:03 PM,82.4,66.2,58,29.90,10.0,South,8.1,-,N/A,,Clear,180,2013-06-17 20:03:00
4:23 PM,82.4,66.2,58,29.89,10.0,SSW,10.4,-,N/A,,Clear,210,2013-06-17 20:23:00
4:43 PM,82.4,64.4,54,29.89,10.0,South,6.9,-,N/A,,Clear,180,2013-06-17 20:43:00
5:03 PM,82.4,64.4,54,29.89,10.0,South,9.2,-,N/A,,Clear,180,2013-06-17 21:03:00
5:23 PM,82.4,68.0,62,29.88,10.0,South,9.2,-,N/A,,Clear,170,2013-06-17 21:23:00
5:43 PM,82.4,68.0,62,29.89,10.0,South,6.9,-,N/A,,Clear,170,2013-06-17 21:43:00
6:03 PM,82.4,68.0,62,29.89,10.0,South,9.2,-,N/A,,Clear,170,2013-06-17 22:03:00
6:23 PM,82.4,68.0,62,29.89,10.0,South,6.9,-,N/A,,Clear,170,2013-06-17 22:23:00
6:43 PM,82.4,68.0,62,29.89,10.0,South,9.2,-,N/A,,Clear,170,2013-06-17 22:43:00
7:03 PM,80.6,68.0,65,29.89,10.0,South,8.1,-,N/A,,Clear,180,2013-06-17 23:03:00
7:23 PM,80.6,68.0,65,29.89,10.0,SSE,8.1,-,N/A,,Clear,160,2013-06-17 23:23:00
7:43 PM,80.6,68.0,65,29.90,10.0,SSE,9.2,-,N/A,,Clear,160,2013-06-17 23:43:00
8:03 PM,78.8,69.8,74,29.89,10.0,SSE,8.1,-,N/A,,Clear,160,2013-06-18 00:03:00
8:23 PM,78.8,71.6,78,29.90,10.0,SSE,6.9,-,N/A,,Clear,160,2013-06-18 00:23:00
8:43 PM,78.8,71.6,78,29.90,10.0,South,8.1,-,N/A,,Clear,170,2013-06-18 00:43:00
9:03 PM,78.8,71.6,78,29.91,10.0,South,6.9,-,N/A,,Clear,170,2013-06-18 01:03:00
9:23 PM,78.8,71.6,78,29.91,10.0,South,6.9,-,N/A,,Clear,170,2013-06-18 01:23:00
9:43 PM,77.0,71.6,83,29.92,10.0,South,5.8,-,N/A,,Clear,170,2013-06-18 01:43:00
10:03 PM,77.0,71.6,83,29.92,10.0,SSE,4.6,-,N/A,,Clear,160,2013-06-18 02:03:00
10:23 PM,77.0,71.6,83,29.92,10.0,SSE,4.6,-,N/A,,Clear,160,2013-06-18 02:23:00
10:43 PM,77.0,71.6,83,29.93,10.0,South,4.6,-,N/A,,Clear,170,2013-06-18 02:43:00
11:03 PM,77.0,71.6,83,29.94,10.0,ENE,4.6,-,N/A,,Clear,70,2013-06-18 03:03:00
11:24 PM,75.2,68.0,78,29.94,10.0,ESE,6.9,-,N/A,,Scattered Clouds,120,2013-06-18 03:24:00
11:44 PM,73.4,66.2,78,29.94,10.0,ESE,9.2,-,N/A,,Scattered Clouds,110,2013-06-18 03:44:00